Lid_Strength_Index
2 3 3 2 2 2 2 2 2 2 3 3 3 3 3 4 4 4 4 4 4 4
5 3 2 1 1 1 1 1 1 2 2 3 3 3 3 4 4 4 4 4 4 4
8 8 7 6 6 5 3 2 1 1 2 2 2 2 3 3 3 3 4 4 4 4
9 8 8 8 8 7 6 6 5 3 1 1 2 2 3 2 3 3 4 3 3 4
9 9 9 9 9 7 7 6 6 5 4 2 1 1 2 2 2 3 3 3 3 3
11 10 10 10 9 9 8 8 8 7 6 5 4 2 1 1 1 1 2 3 3 3
12 11 11 10 10 10 10 10 9 8 8 6 5 4 3 1 1 1 1 1 1 2
13 13 12 11 11 11 11 10 9 9 8 8 7 6 5 3 2 1 2 1 1 1
13 14 14 14 13 13 12 11 10 10 9 9 8 7 7 6 5 3 2 2 1 1
16 16 16 15 15 15 14 13 13 12 11 11 9 8 8 8 6 6 4 3 2 2
17 18 17 16 16 16 15 15 14 13 12 12 11 9 9 9 8 7 7 5 4 2
18 19 18 18 18 17 16 15 16 15 15 14 13 11 10 9 9 9 9 8 6 4
19 19 20 19 18 17 17 16 15 15 13 12 12 10 10 9 9 10 9 8 8 8
19 19 19 19 18 17 17 16 17 15 14 14 13 12 10 9 9 9 9 9 8 8